SWA561 KRDU-KEWR

Flight info

Callsign SWA561
Flight time 1h 15m
Altitude 35000
Route OXFRD5 CARML DCT QUART PHLBO4
Aircraft B738/M-SDE2E3FGHIRWXY/LB1

Departure

Time 2026-05-04 18:44
Airport Raleigh-Durham International Airport (KRDU)

Arrival

Time 2026-05-04 19:59
Airport Newark Liberty International Airport (KEWR)
Time Latitude Longitude Altitude Speed Heading
2026-05-04 18:25 35.87898 -78.79234 389 ft 0 kts 137°
2026-05-04 18:31 35.87902 -78.79239 389 ft 3 kts 137°
2026-05-04 18:31 35.87915 -78.79253 389 ft 2 kts 137°
2026-05-04 18:32 35.87927 -78.79268 389 ft 2 kts 137°
2026-05-04 18:32 35.87940 -78.79282 389 ft 2 kts 137°
2026-05-04 18:32 35.87946 -78.79289 389 ft 0 kts 137°
2026-05-04 18:34 35.87945 -78.79281 389 ft 3 kts 96°
2026-05-04 18:34 35.87951 -78.79276 389 ft 0 kts 39°
2026-05-04 18:34 35.87952 -78.79274 389 ft 1 kts 39°
2026-05-04 18:35 35.88016 -78.79199 390 ft 16 kts 44°
2026-05-04 18:35 35.88096 -78.79102 392 ft 16 kts 44°
2026-05-04 18:35 35.88169 -78.79006 391 ft 15 kts 45°
2026-05-04 18:35 35.88241 -78.78917 392 ft 14 kts 45°
2026-05-04 18:36 35.88311 -78.78831 391 ft 14 kts 45°
2026-05-04 18:36 35.88377 -78.78751 394 ft 13 kts 45°
2026-05-04 18:36 35.88441 -78.78673 398 ft 13 kts 44°
2026-05-04 18:36 35.88503 -78.78597 400 ft 12 kts 44°
2026-05-04 18:37 35.88563 -78.78521 402 ft 12 kts 46°
2026-05-04 18:37 35.88621 -78.78447 403 ft 12 kts 46°
2026-05-04 18:37 35.88679 -78.78377 405 ft 12 kts 44°
2026-05-04 18:37 35.88736 -78.78310 405 ft 11 kts 43°
2026-05-04 18:38 35.88791 -78.78244 404 ft 11 kts 46°
2026-05-04 18:38 35.88842 -78.78178 403 ft 11 kts 46°
2026-05-04 18:38 35.88893 -78.78113 406 ft 10 kts 45°
2026-05-04 18:38 35.88942 -78.78051 402 ft 10 kts 50°
2026-05-04 18:39 35.88980 -78.77980 406 ft 10 kts 66°
2026-05-04 18:39 35.89005 -78.77904 407 ft 9 kts 64°
2026-05-04 18:39 35.89042 -78.77840 409 ft 9 kts 40°
2026-05-04 18:39 35.89089 -78.77792 411 ft 9 kts 40°
2026-05-04 18:40 35.89139 -78.77738 410 ft 11 kts 39°
2026-05-04 18:40 35.89215 -78.77681 415 ft 13 kts 24°
2026-05-04 18:40 35.89284 -78.77714 411 ft 12 kts 322°
2026-05-04 18:40 35.89294 -78.77724 415 ft 0 kts 320°
2026-05-04 18:42 35.89296 -78.77726 415 ft 4 kts 320°
2026-05-04 18:42 35.89356 -78.77821 413 ft 9 kts 264°
2026-05-04 18:43 35.89330 -78.77872 416 ft 7 kts 225°
2026-05-04 18:43 35.89328 -78.77875 416 ft 0 kts 225°
2026-05-04 18:43 35.89208 -78.78024 412 ft 67 kts 224°
2026-05-04 18:43 35.88674 -78.78681 403 ft 147 kts 226°
2026-05-04 18:44 35.87892 -78.79636 1093 ft 167 kts 223°
2026-05-04 18:44 35.87608 -78.79964 1371 ft 177 kts 222°
2026-05-04 18:44 35.85957 -78.81935 2647 ft 211 kts 226°
2026-05-04 18:44 35.84898 -78.83304 3312 ft 226 kts 225°
2026-05-04 18:45 35.83780 -78.84671 4179 ft 227 kts 225°
2026-05-04 18:45 35.82697 -78.86119 4965 ft 231 kts 240°
2026-05-04 18:45 35.82253 -78.88009 5685 ft 233 kts 271°
2026-05-04 18:45 35.82707 -78.89876 6621 ft 231 kts 301°
2026-05-04 18:46 35.83731 -78.91425 7352 ft 237 kts 309°
2026-05-04 18:46 35.84898 -78.92993 7866 ft 255 kts 310°
2026-05-04 18:46 35.86108 -78.94579 8690 ft 260 kts 315°
2026-05-04 18:46 35.87735 -78.95555 9646 ft 270 kts 349°
2026-05-04 18:47 35.89622 -78.95201 10536 ft 288 kts 19°
2026-05-04 18:47 35.91354 -78.93826 11221 ft 301 kts 28°
2026-05-04 18:47 35.93128 -78.92429 11961 ft 305 kts 25°
2026-05-04 18:47 35.94961 -78.91059 12734 ft 310 kts 25°
2026-05-04 18:48 35.96825 -78.89687 13560 ft 314 kts 25°
2026-05-04 18:48 35.98715 -78.88303 14312 ft 318 kts 25°
2026-05-04 18:48 36.00633 -78.86902 15045 ft 321 kts 25°
2026-05-04 18:48 36.02569 -78.85489 15775 ft 325 kts 25°
2026-05-04 18:49 36.04527 -78.84058 16491 ft 329 kts 25°
2026-05-04 18:49 36.06513 -78.82606 17202 ft 334 kts 25°
2026-05-04 18:49 36.08504 -78.81150 17887 ft 338 kts 25°
2026-05-04 18:49 36.10543 -78.79656 18552 ft 343 kts 25°
2026-05-04 18:50 36.12606 -78.78145 19174 ft 346 kts 25°
2026-05-04 18:50 36.14697 -78.76612 19798 ft 349 kts 25°
2026-05-04 18:50 36.16085 -78.75593 20204 ft 352 kts 25°
2026-05-04 18:50 36.18898 -78.73529 20957 ft 359 kts 25°
2026-05-04 18:51 36.21109 -78.71910 21064 ft 378 kts 25°
2026-05-04 18:51 36.22665 -78.70770 21162 ft 390 kts 26°
2026-05-04 18:51 36.25020 -78.69041 21282 ft 406 kts 26°
2026-05-04 18:51 36.27499 -78.67214 21406 ft 421 kts 26°
2026-05-04 18:52 36.30063 -78.65323 21507 ft 436 kts 26°
2026-05-04 18:52 36.32702 -78.63376 21719 ft 446 kts 26°
2026-05-04 18:52 36.35390 -78.61417 22149 ft 448 kts 23°
2026-05-04 18:52 36.38268 -78.60017 22663 ft 441 kts 11°
2026-05-04 18:53 36.41244 -78.59070 23161 ft 443 kts
2026-05-04 18:53 36.44241 -78.58098 23582 ft 447 kts 10°
2026-05-04 18:53 36.47253 -78.57059 23929 ft 451 kts 11°
2026-05-04 18:53 36.50281 -78.55979 24295 ft 454 kts 11°
2026-05-04 18:54 36.53319 -78.54880 24669 ft 456 kts 11°
2026-05-04 18:54 36.56372 -78.53773 25017 ft 459 kts 11°
2026-05-04 18:54 36.59450 -78.52661 25338 ft 462 kts 11°
2026-05-04 18:54 36.62539 -78.51547 25684 ft 464 kts 11°
2026-05-04 18:55 36.65647 -78.50428 26028 ft 466 kts 10°
2026-05-04 18:55 36.71900 -78.48176 26781 ft 468 kts 10°
2026-05-04 18:55 36.74996 -78.46924 27261 ft 472 kts 18°
2026-05-04 18:56 36.77860 -78.44866 27779 ft 478 kts 27°
2026-05-04 18:56 36.80595 -78.42599 28299 ft 477 kts 28°
2026-05-04 18:56 36.83339 -78.40286 28717 ft 477 kts 28°
2026-05-04 18:56 36.86101 -78.37968 29131 ft 477 kts 27°
2026-05-04 18:57 36.88859 -78.35677 29610 ft 475 kts 27°
2026-05-04 18:57 36.91616 -78.33410 30118 ft 473 kts 27°
2026-05-04 18:57 36.94364 -78.31165 30529 ft 472 kts 26°
2026-05-04 18:57 36.97118 -78.28924 30882 ft 472 kts 26°
2026-05-04 18:58 36.99872 -78.26684 31216 ft 472 kts 26°
2026-05-04 18:58 37.02623 -78.24445 31591 ft 471 kts 26°
2026-05-04 18:58 37.05360 -78.22213 31967 ft 470 kts 26°
2026-05-04 18:58 37.08104 -78.19973 32312 ft 470 kts 26°
2026-05-04 18:59 37.10845 -78.17732 32658 ft 470 kts 26°
2026-05-04 18:59 37.13586 -78.15489 33004 ft 470 kts 26°
2026-05-04 18:59 37.16324 -78.13246 33345 ft 470 kts 26°
2026-05-04 18:59 37.19027 -78.11029 33668 ft 470 kts 25°
2026-05-04 19:00 37.21763 -78.08784 33995 ft 470 kts 25°
2026-05-04 19:00 37.24497 -78.06538 34279 ft 469 kts 26°
2026-05-04 19:00 37.27235 -78.04286 34547 ft 469 kts 26°
2026-05-04 19:00 37.29969 -78.02036 34798 ft 470 kts 26°
2026-05-04 19:01 37.32700 -77.99789 35013 ft 471 kts 26°
2026-05-04 19:01 37.35451 -77.97498 34996 ft 477 kts 29°
2026-05-04 19:01 37.37917 -77.94633 34998 ft 490 kts 45°
2026-05-04 19:01 37.40035 -77.91287 35009 ft 489 kts 47°
2026-05-04 19:02 37.44142 -77.84526 35010 ft 484 kts 46°
2026-05-04 19:02 37.48321 -77.77894 35016 ft 482 kts 46°
2026-05-04 19:03 37.52699 -77.71558 35005 ft 474 kts 36°
2026-05-04 19:03 37.57940 -77.66837 35018 ft 463 kts 25°
2026-05-04 19:04 37.63417 -77.62549 35015 ft 463 kts 26°
2026-05-04 19:04 37.68855 -77.58179 35012 ft 463 kts 27°
2026-05-04 19:05 37.74260 -77.53780 35013 ft 462 kts 27°
2026-05-04 19:05 37.79662 -77.49390 35012 ft 461 kts 27°
2026-05-04 19:06 37.85022 -77.45031 35004 ft 460 kts 27°
2026-05-04 19:06 37.90397 -77.40651 35008 ft 459 kts 27°
2026-05-04 19:07 37.95759 -77.36273 34999 ft 458 kts 27°
2026-05-04 19:07 38.01116 -77.31892 34971 ft 457 kts 27°
2026-05-04 19:08 38.06432 -77.27545 34974 ft 457 kts 27°
2026-05-04 19:08 38.11772 -77.23170 34969 ft 456 kts 27°
2026-05-04 19:09 38.17108 -77.18789 34969 ft 456 kts 27°
2026-05-04 19:09 38.22442 -77.14401 34968 ft 456 kts 27°
2026-05-04 19:10 38.27778 -77.10006 34969 ft 456 kts 27°
2026-05-04 19:10 38.32991 -77.05362 34959 ft 456 kts 31°
2026-05-04 19:11 38.37988 -77.00475 34934 ft 447 kts 32°
2026-05-04 19:11 38.40416 -76.98084 34646 ft 435 kts 32°
2026-05-04 19:11 38.42783 -76.95766 34298 ft 422 kts 31°
2026-05-04 19:12 38.45067 -76.93544 33975 ft 415 kts 31°
2026-05-04 19:12 38.49655 -76.89117 33226 ft 413 kts 31°
2026-05-04 19:12 38.51955 -76.86900 32858 ft 414 kts 31°
2026-05-04 19:13 38.54256 -76.84679 32499 ft 414 kts 31°
2026-05-04 19:13 38.56553 -76.82457 32139 ft 416 kts 31°
2026-05-04 19:13 38.58863 -76.80220 31782 ft 417 kts 31°
2026-05-04 19:13 38.61179 -76.77974 31444 ft 418 kts 32°
2026-05-04 19:14 38.63502 -76.75718 31116 ft 419 kts 32°
2026-05-04 19:14 38.65823 -76.73462 30795 ft 419 kts 32°
2026-05-04 19:14 38.68145 -76.71203 30480 ft 420 kts 32°
2026-05-04 19:14 38.70473 -76.68936 30163 ft 420 kts 32°
2026-05-04 19:15 38.72808 -76.66662 29815 ft 421 kts 32°
2026-05-04 19:15 38.75141 -76.64388 29457 ft 421 kts 32°
2026-05-04 19:15 38.77478 -76.62108 29083 ft 422 kts 32°
2026-05-04 19:15 38.79819 -76.59823 28728 ft 423 kts 32°
2026-05-04 19:16 38.82130 -76.57565 28380 ft 423 kts 32°
2026-05-04 19:16 38.84477 -76.55270 28034 ft 424 kts 32°
2026-05-04 19:16 38.86827 -76.52969 27678 ft 425 kts 32°
2026-05-04 19:16 38.89194 -76.50651 27425 ft 431 kts 32°
2026-05-04 19:17 38.91584 -76.48307 27427 ft 431 kts 32°
2026-05-04 19:17 38.93966 -76.45966 27399 ft 431 kts 32°
2026-05-04 19:17 38.96323 -76.43649 27370 ft 431 kts 32°
2026-05-04 19:17 38.98711 -76.41300 27334 ft 430 kts 32°
2026-05-04 19:18 39.01090 -76.38959 27301 ft 430 kts 32°
2026-05-04 19:18 39.03446 -76.36590 27280 ft 430 kts 34°
2026-05-04 19:18 39.05715 -76.34064 27271 ft 431 kts 37°
2026-05-04 19:18 39.07930 -76.31461 27248 ft 431 kts 38°
2026-05-04 19:19 39.10113 -76.28854 27208 ft 421 kts 38°
2026-05-04 19:19 39.12194 -76.26370 27141 ft 407 kts 37°
2026-05-04 19:19 39.14252 -76.23934 27010 ft 395 kts 37°
2026-05-04 19:19 39.16245 -76.21592 26974 ft 381 kts 37°
2026-05-04 19:20 39.18186 -76.19321 26980 ft 376 kts 36°
2026-05-04 19:20 39.20137 -76.17048 26997 ft 380 kts 36°
2026-05-04 19:20 39.22122 -76.14734 27001 ft 385 kts 36°
2026-05-04 19:20 39.24109 -76.12408 26976 ft 385 kts 37°
2026-05-04 19:21 39.26087 -76.10088 26963 ft 383 kts 37°
2026-05-04 19:21 39.28055 -76.07776 26780 ft 383 kts 37°
2026-05-04 19:21 39.30009 -76.05483 26475 ft 385 kts 37°
2026-05-04 19:21 39.32015 -76.03125 26172 ft 385 kts 37°
2026-05-04 19:22 39.33978 -76.00817 25881 ft 386 kts 37°
2026-05-04 19:22 39.35961 -75.98482 25575 ft 386 kts 37°
2026-05-04 19:22 39.37953 -75.96135 25290 ft 386 kts 37°
2026-05-04 19:22 39.39942 -75.93788 25001 ft 386 kts 37°
2026-05-04 19:23 39.41917 -75.91456 24715 ft 385 kts 37°
2026-05-04 19:23 39.43890 -75.89124 24431 ft 384 kts 37°
2026-05-04 19:23 39.45861 -75.86793 24144 ft 382 kts 37°
2026-05-04 19:23 39.47820 -75.84474 23861 ft 381 kts 36°
2026-05-04 19:24 39.49773 -75.82161 23569 ft 379 kts 37°
2026-05-04 19:24 39.51691 -75.79887 23255 ft 377 kts 37°
2026-05-04 19:24 39.53631 -75.77588 22863 ft 377 kts 37°
2026-05-04 19:24 39.55560 -75.75299 22485 ft 376 kts 37°
2026-05-04 19:25 39.57483 -75.73015 22112 ft 374 kts 37°
2026-05-04 19:25 39.59389 -75.70747 21716 ft 370 kts 37°
2026-05-04 19:25 39.61270 -75.68507 21312 ft 364 kts 37°
2026-05-04 19:25 39.63127 -75.66296 20933 ft 361 kts 37°
2026-05-04 19:26 39.64986 -75.64083 20556 ft 360 kts 37°
2026-05-04 19:26 39.66830 -75.61885 20185 ft 359 kts 37°
2026-05-04 19:26 39.68647 -75.59715 19818 ft 358 kts 37°
2026-05-04 19:26 39.70497 -75.57493 19441 ft 358 kts 38°
2026-05-04 19:27 39.72303 -75.55320 19034 ft 359 kts 38°
2026-05-04 19:27 39.74132 -75.53117 18635 ft 358 kts 38°
2026-05-04 19:27 39.75960 -75.50913 18230 ft 358 kts 38°
2026-05-04 19:27 39.77783 -75.48713 17779 ft 357 kts 38°
2026-05-04 19:28 39.79588 -75.46531 17329 ft 351 kts 38°
2026-05-04 19:28 39.81366 -75.44382 16877 ft 346 kts 38°
2026-05-04 19:28 39.83122 -75.42258 16426 ft 343 kts 38°
2026-05-04 19:28 39.84871 -75.40143 15992 ft 341 kts 38°
2026-05-04 19:29 39.86601 -75.38050 15566 ft 339 kts 38°
2026-05-04 19:29 39.88299 -75.35993 15129 ft 338 kts 39°
2026-05-04 19:29 39.90050 -75.33872 14683 ft 338 kts 39°
2026-05-04 19:29 39.91773 -75.31782 14226 ft 338 kts 39°
2026-05-04 19:30 39.93493 -75.29695 13778 ft 338 kts 39°
2026-05-04 19:30 39.95211 -75.27607 13282 ft 337 kts 39°
2026-05-04 19:30 39.96900 -75.25554 12785 ft 336 kts 39°
2026-05-04 19:30 39.98602 -75.23483 12297 ft 332 kts 39°
2026-05-04 19:31 40.00275 -75.21445 11803 ft 326 kts 39°
2026-05-04 19:31 40.01921 -75.19437 11347 ft 319 kts 39°
2026-05-04 19:31 40.03525 -75.17481 10917 ft 313 kts 39°
2026-05-04 19:31 40.05106 -75.15553 10516 ft 308 kts 39°
2026-05-04 19:32 40.06657 -75.13659 10099 ft 303 kts 39°
2026-05-04 19:32 40.08172 -75.11810 9685 ft 301 kts 40°
2026-05-04 19:32 40.09694 -75.09951 9260 ft 298 kts 40°
2026-05-04 19:32 40.11195 -75.08114 8898 ft 294 kts 40°
2026-05-04 19:33 40.12689 -75.06287 8579 ft 292 kts 40°
2026-05-04 19:33 40.14163 -75.04481 8544 ft 289 kts 40°
2026-05-04 19:33 40.15628 -75.02687 8533 ft 288 kts 40°
2026-05-04 19:33 40.17088 -75.00897 8491 ft 287 kts 39°
2026-05-04 19:34 40.18541 -74.99113 8460 ft 286 kts 40°
2026-05-04 19:34 40.19998 -74.97326 8421 ft 286 kts 40°
2026-05-04 19:34 40.21446 -74.95547 8354 ft 285 kts 40°
2026-05-04 19:34 40.22896 -74.93765 8334 ft 285 kts 40°
2026-05-04 19:35 40.24328 -74.92002 8290 ft 286 kts 40°
2026-05-04 19:35 40.25768 -74.90205 8244 ft 286 kts 42°
2026-05-04 19:35 40.27142 -74.88315 8212 ft 287 kts 44°
2026-05-04 19:35 40.28496 -74.86392 8126 ft 288 kts 45°
2026-05-04 19:36 40.29862 -74.84444 7979 ft 292 kts 44°
2026-05-04 19:36 40.31241 -74.82485 7831 ft 293 kts 45°
2026-05-04 19:36 40.32617 -74.80543 7669 ft 289 kts 44°
2026-05-04 19:36 40.33981 -74.78628 7519 ft 286 kts 44°
2026-05-04 19:37 40.35332 -74.76731 7372 ft 283 kts 44°
2026-05-04 19:37 40.36218 -74.75476 7273 ft 282 kts 45°
2026-05-04 19:37 40.37550 -74.73594 7129 ft 281 kts 44°
2026-05-04 19:37 40.38881 -74.71730 6980 ft 279 kts 44°
2026-05-04 19:38 40.40642 -74.69256 6787 ft 279 kts 44°
2026-05-04 19:38 40.41539 -74.68011 6683 ft 278 kts 39°
2026-05-04 19:38 40.43164 -74.66718 6522 ft 272 kts 14°
2026-05-04 19:38 40.44993 -74.66152 6387 ft 269 kts
2026-05-04 19:39 40.46843 -74.65679 6183 ft 272 kts
2026-05-04 19:39 40.48711 -74.65203 6001 ft 274 kts
2026-05-04 19:39 40.50567 -74.64724 5796 ft 274 kts
2026-05-04 19:39 40.52430 -74.64234 5602 ft 272 kts
2026-05-04 19:40 40.54278 -74.63742 5463 ft 268 kts
2026-05-04 19:40 40.56096 -74.63258 5348 ft 265 kts
2026-05-04 19:40 40.57910 -74.62775 5268 ft 266 kts
2026-05-04 19:40 40.59727 -74.62289 5171 ft 267 kts
2026-05-04 19:41 40.61554 -74.61801 5044 ft 269 kts
2026-05-04 19:41 40.63386 -74.61307 4955 ft 268 kts
2026-05-04 19:41 40.65208 -74.60816 4857 ft 268 kts
2026-05-04 19:41 40.67035 -74.60324 4778 ft 267 kts
2026-05-04 19:42 40.68857 -74.59843 4650 ft 267 kts
2026-05-04 19:42 40.70655 -74.59358 4596 ft 268 kts
2026-05-04 19:42 40.72484 -74.58863 4521 ft 270 kts
2026-05-04 19:42 40.74327 -74.58373 4385 ft 271 kts
2026-05-04 19:43 40.76170 -74.57869 4348 ft 266 kts
2026-05-04 19:43 40.77957 -74.57387 4264 ft 259 kts
2026-05-04 19:43 40.79707 -74.56914 4145 ft 254 kts
2026-05-04 19:43 40.81419 -74.56449 4022 ft 251 kts
2026-05-04 19:44 40.83132 -74.55983 3939 ft 250 kts 10°
2026-05-04 19:44 40.84676 -74.54946 3809 ft 254 kts 42°
2026-05-04 19:44 40.85641 -74.53010 3742 ft 254 kts 72°
2026-05-04 19:44 40.85877 -74.50715 3679 ft 252 kts 94°
2026-05-04 19:45 40.85776 -74.48415 3612 ft 251 kts 96°
2026-05-04 19:45 40.85660 -74.46133 3481 ft 251 kts 96°
2026-05-04 19:45 40.85533 -74.43826 3430 ft 253 kts 96°
2026-05-04 19:45 40.85404 -74.41500 3341 ft 253 kts 96°
2026-05-04 19:46 40.85280 -74.39203 3169 ft 248 kts 96°
2026-05-04 19:46 40.85167 -74.36967 3105 ft 242 kts 96°
2026-05-04 19:46 40.85054 -74.34740 2998 ft 243 kts 96°
2026-05-04 19:46 40.84941 -74.32536 2991 ft 239 kts 96°
2026-05-04 19:47 40.84831 -74.30367 2967 ft 232 kts 97°
2026-05-04 19:47 40.84730 -74.28238 3016 ft 233 kts 95°
2026-05-04 19:47 40.84632 -74.26121 3003 ft 234 kts 96°
2026-05-04 19:47 40.84532 -74.23967 2971 ft 236 kts 94°
2026-05-04 19:48 40.84432 -74.21793 3012 ft 239 kts 96°
2026-05-04 19:48 40.84313 -74.19587 2941 ft 242 kts 98°
2026-05-04 19:48 40.84193 -74.17368 2989 ft 240 kts 97°
2026-05-04 19:48 40.84079 -74.15181 3020 ft 236 kts 96°
2026-05-04 19:49 40.83970 -74.13025 3005 ft 232 kts 98°
2026-05-04 19:49 40.83431 -74.11111 2989 ft 218 kts 137°
2026-05-04 19:49 40.82161 -74.10201 3010 ft 207 kts 174°
2026-05-04 19:49 40.80727 -74.10135 2984 ft 204 kts 188°
2026-05-04 19:50 40.79374 -74.10301 2963 ft 188 kts 198°
2026-05-04 19:50 40.78201 -74.10829 2982 ft 171 kts 206°
2026-05-04 19:50 40.77136 -74.11447 2991 ft 166 kts 208°
2026-05-04 19:50 40.76091 -74.12110 3007 ft 167 kts 210°
2026-05-04 19:51 40.75030 -74.12787 3019 ft 173 kts 209°
2026-05-04 19:51 40.73945 -74.13483 2991 ft 171 kts 209°
2026-05-04 19:51 40.72892 -74.14155 2999 ft 167 kts 209°
2026-05-04 19:51 40.71839 -74.14828 2998 ft 169 kts 210°
2026-05-04 19:52 40.70779 -74.15505 3003 ft 169 kts 210°
2026-05-04 19:52 40.70030 -74.16543 2959 ft 154 kts 256°
2026-05-04 19:52 40.70306 -74.17932 3054 ft 182 kts 301°
2026-05-04 19:52 40.71198 -74.19479 3018 ft 238 kts 312°
2026-05-04 19:53 40.72711 -74.20441 2993 ft 252 kts 350°
2026-05-04 19:53 40.74501 -74.20180 3006 ft 264 kts 10°
2026-05-04 19:53 40.76278 -74.19568 2999 ft 265 kts 11°
2026-05-04 19:53 40.78064 -74.18998 3017 ft 263 kts
2026-05-04 19:54 40.79830 -74.18512 2995 ft 261 kts
2026-05-04 19:54 40.81600 -74.18065 3008 ft 258 kts
2026-05-04 19:54 40.83374 -74.17638 2979 ft 258 kts
2026-05-04 19:54 40.85126 -74.17170 2971 ft 258 kts 16°
2026-05-04 19:55 40.86610 -74.15856 2968 ft 261 kts 53°
2026-05-04 19:55 40.87234 -74.13674 2989 ft 260 kts 90°
2026-05-04 19:55 40.86797 -74.11383 3003 ft 254 kts 125°
2026-05-04 19:55 40.85629 -74.09673 2988 ft 251 kts 150°
2026-05-04 19:56 40.84065 -74.08911 3003 ft 239 kts 177°
2026-05-04 19:56 40.82413 -74.08926 2664 ft 239 kts 190°
2026-05-04 19:56 40.80781 -74.09293 2370 ft 236 kts 201°
2026-05-04 19:56 40.79265 -74.10079 2077 ft 232 kts 206°
2026-05-04 19:57 40.77826 -74.10992 1769 ft 226 kts 209°
2026-05-04 19:57 40.76466 -74.11872 1488 ft 209 kts 208°
2026-05-04 19:57 40.75211 -74.12672 1208 ft 191 kts 208°
2026-05-04 19:57 40.74086 -74.13387 959 ft 170 kts 210°
2026-05-04 19:58 40.73089 -74.14024 746 ft 148 kts 209°
2026-05-04 19:58 40.72216 -74.14584 571 ft 136 kts 210°
2026-05-04 19:58 40.71345 -74.15140 357 ft 142 kts 208°
2026-05-04 19:58 40.70471 -74.15699 198 ft 141 kts 208°
2026-05-04 19:59 40.69582 -74.16265 28 ft 139 kts 210°
2026-05-04 19:59 40.68803 -74.16766 18 ft 108 kts 206°
2026-05-04 19:59 40.68502 -74.16952 18 ft 29 kts 206°
2026-05-04 19:59 40.68332 -74.17077 19 ft 27 kts 221°
2026-05-04 20:00 40.68226 -74.17272 18 ft 25 kts 244°
2026-05-04 20:00 40.68164 -74.17476 16 ft 22 kts 278°
2026-05-04 20:00 40.68219 -74.17644 17 ft 17 kts 300°
2026-05-04 20:00 40.68311 -74.17733 18 ft 16 kts 325°
2026-05-04 20:01 40.68361 -74.17859 21 ft 16 kts 284°
2026-05-04 20:01 40.68356 -74.17999 19 ft 16 kts 259°
2026-05-04 20:01 40.68403 -74.18060 18 ft 12 kts 345°
2026-05-04 20:01 40.68482 -74.18098 19 ft 12 kts 334°
2026-05-04 20:02 40.68550 -74.18122 17 ft 10 kts 352°
2026-05-04 20:02 40.68580 -74.18157 18 ft 5 kts 290°
2026-05-04 20:02 40.68585 -74.18185 18 ft 0 kts 279°
2026-05-04 20:02 40.68586 -74.18189 18 ft 2 kts 291°